Regional Weather Roundup
Issued by NWS

Home | Current Version | Previous Version | Text Only | Print | Product List | Glossary Off
Versions: 1 2 3 4 5 6 7 8 9 10 11 12 13 14 15 16 17 18 19 20 21 22 23 24 25 26 27 28 29 30 31 32 33 34 35 36 37 38 39 40 41 42 43 44 45 46 47 48 49 50

000
ASUS43 KBIS 280510
RWRND

NORTH DAKOTA REGIONAL WEATHER ROUNDUP
NATIONAL WEATHER SERVICE BISMARCK ND
1200 AM CDT SAT MAY 28 2016

NOTE: "FAIR" INDICATES FEW OR NO CLOUDS BELOW 12,000 FEET WITH NO
SIGNIFICANT WEATHER AND/OR OBSTRUCTIONS TO VISIBILITY.


NDZ001>003-009>011-017-280600-
NORTHWEST NORTH DAKOTA

CITY           SKY/WX    TMP DP  RH WIND       PRES   REMARKS
WILLISTON      PTCLDY    57  52  83 NE6       29.87R
MINOT          CLOUDY    59  54  83 NE9       29.87S
MINOT AFB      CLOUDY    56  53  89 E9        29.87R
$$

NDZ018>021-031>035-040>046-280600-
SOUTHWEST NORTH DAKOTA

CITY           SKY/WX    TMP DP  RH WIND       PRES   REMARKS
BISMARCK       PTCLDY    57  50  77 NE7       29.82S
DICKINSON      CLEAR     51  45  79 NE7       29.83F
GARRISON         N/A     57  55  93 NE7       29.84S
HETTINGER ARPT CLEAR     42  39  89 W3        29.85S
$$

NDZ004>008-012>016-024-026-027-054-280600-
NORTHEAST NORTH DAKOTA

CITY           SKY/WX    TMP DP  RH WIND       PRES   REMARKS
GRAND FORKS    CLOUDY    63  58  83 CALM      29.78F
GRND FRKS AFB  CLOUDY    63  61  92 E5        29.79S
DEVILS LAKE    CLOUDY    59  56  89 NE14      29.84S
$$

NDZ022-023-025-028>030-036>039-047>053-280600-
SOUTHEAST NORTH DAKOTA

CITY           SKY/WX    TMP DP  RH WIND       PRES   REMARKS
FARGO          PTCLDY    63  58  83 SE10      29.78S
JAMESTOWN      CLOUDY    60  57  89 N6        29.79S
$$





USA.gov is the U.S. government's official web portal to all federal, state and local government web resources and services.